[[{"header":{"parameterUnit":"m.s-1","parameterCategory":1,"la1":30.2991,"la2":30.254,"lo1":-89.0895,"lo2":-89.0444,"dy":0.0017,"dx":0.0017,"nx":28,"ny":28,"refTime":"2025-08-06T21:00:00:Z","depth":0,"parameterNumber":2,"parameterNumberName":"U-component_of_WINDS"},"data":[0,0,0,0,0,0,0,0,0,0,0,0,0,0,0,0,0,0,0,0,0,0,0,0,0,0,0,0,0,0,0,0,0,0,0,0,0,0,0,0,0,0,0,0,0,0,0,0,0,0,0,0,0,0,0,0,0,0,-0.5088,-0.5088,0,-0.5097,-0.5097,-0.5097,-0.5097,-0.5097,-0.5096,-0.5096,-0.5105,-0.5105,-0.5105,0,0,0,0,0,0,0,0,0,0,0,0,0,-0.507,-0.507,-0.5088,-0.5088,-0.5088,-0.5097,-0.5097,-0.5097,-0.5097,-0.5097,-0.5096,-0.5096,-0.5104,-0.5105,-0.5105,0,0,0,0,0,0,0,0,0,0,0,0,0,-0.5078,-0.507,-0.5088,-0.5089,-0.5089,-0.5097,-0.5097,-0.5097,-0.5097,-0.5097,-0.5096,-0.5096,-0.5104,-0.5105,-0.5105,-0.5112,0,0,-0.5107,-0.5107,0,0,0,0,0,0,0,0,-0.5078,-0.5079,-0.5089,-0.5089,-0.5089,-0.5096,-0.5094,-0.5102,-0.5097,-0.5094,-0.5096,-0.5096,-0.5102,-0.5102,-0.5104,-0.5113,-0.5113,-0.5107,-0.5107,-0.5107,-0.5108,0,0,0,0,0,0,0,-0.5077,-0.5078,-0.5092,-0.5089,-0.5089,-0.5089,-0.509,-0.5095,-0.5099,-0.5094,-0.5094,-0.5095,-0.5102,-0.5104,-0.5105,-0.5113,-0.5107,-0.5107,-0.5108,-0.5108,-0.5128,-0.5129,0,0,0,0,0,0,-0.5076,-0.5078,-0.5091,-0.5092,-0.5083,-0.5089,-0.509,-0.5094,-0.5099,-0.5099,-0.5095,-0.5095,-0.5103,-0.5104,-0.5105,-0.5114,-0.5107,-0.5108,-0.5108,-0.5128,-0.5128,-0.5129,0,0,0,0,0,0,-0.5076,-0.5078,-0.5091,-0.5085,-0.5087,-0.509,-0.5094,-0.5094,-0.5096,-0.51,-0.51,-0.5097,-0.5103,-0.5104,-0.5111,-0.5114,-0.5108,-0.5109,-0.5128,-0.5128,-0.5128,-0.5131,0,0,0,0,0,0,-0.5075,-0.5077,-0.508,-0.5085,-0.5087,-0.5097,-0.5094,-0.5094,-0.5097,-0.5097,-0.5101,-0.5102,-0.5103,-0.511,-0.5111,-0.5115,-0.5109,-0.5127,-0.5128,-0.5128,-0.5131,-0.5132,-0.5132,0,0,0,0,0,-0.5075,-0.508,-0.508,-0.5082,-0.509,-0.5097,-0.5098,-0.5099,-0.5097,-0.51,-0.5103,-0.5102,-0.5114,-0.5111,-0.5112,-0.5116,-0.5127,-0.5128,-0.5128,-0.513,-0.5131,-0.5132,0,0,0,0,0,0,-0.5075,-0.5081,-0.5081,-0.5088,-0.5092,-0.5097,-0.51,-0.51,-0.5104,-0.5104,-0.5105,-0.5106,-0.5113,-0.5115,-0.5112,-0.5123,-0.512,-0.5121,-0.5121,-0.5122,-0.5123,-0.5122,-0.5109,0,0,0,0,0,-0.5076,-0.5081,-0.5086,-0.5092,-0.5094,-0.5097,-0.5099,-0.51,-0.5104,-0.5106,-0.5109,-0.5112,-0.5117,-0.512,-0.5124,-0.5131,-0.5132,-0.5134,-0.5135,-0.5136,-0.5136,-0.514,-0.5142,-0.513,-0.513,-0.513,0,0,-0.5078,-0.5082,-0.5085,-0.5092,-0.5095,-0.51,-0.5098,-0.5103,-0.5107,-0.5106,-0.5113,-0.5115,-0.5119,-0.5126,-0.5129,-0.5128,-0.514,-0.5136,-0.5137,-0.5137,-0.5141,-0.5142,-0.5143,-0.5131,-0.5131,-0.5131,0,0,-0.5084,-0.5087,-0.5093,-0.5096,-0.5101,-0.5103,-0.5105,-0.511,-0.5111,-0.5118,-0.5118,-0.5122,-0.513,-0.5133,-0.5136,-0.5144,-0.5143,-0.5145,-0.5149,-0.5153,-0.5154,-0.5154,-0.5157,-0.5158,-0.5146,-0.5146,-0.5146,0,-0.5085,-0.5093,-0.5095,-0.5101,-0.5104,-0.5105,-0.511,-0.5113,-0.5119,-0.5122,-0.512,-0.513,-0.5133,-0.5141,-0.5143,-0.5145,-0.5147,-0.5144,-0.5153,-0.5154,-0.5155,-0.5158,-0.5159,-0.5146,-0.5146,-0.5146,-0.5146,0,-0.5095,-0.51,-0.5104,-0.511,-0.5114,-0.512,-0.5123,-0.5126,-0.5127,-0.5129,-0.5136,-0.514,-0.5145,-0.5147,-0.5148,-0.5155,-0.5154,-0.5153,-0.515,-0.5156,-0.5159,-0.516,-0.5146,-0.5146,-0.5146,-0.5146,0,0,-0.51,-0.5109,-0.511,-0.5113,-0.5119,-0.5123,-0.5129,-0.5135,-0.5138,-0.5142,-0.5147,-0.5154,-0.5153,-0.5156,-0.5157,-0.5161,-0.5167,-0.5159,-0.5159,-0.516,-0.5175,-0.5176,-0.5177,-0.5167,-0.5167,-0.5167,-0.5175,0,-0.5107,-0.5117,-0.512,-0.5128,-0.5133,-0.5135,-0.514,-0.5144,-0.5146,-0.5151,-0.5154,-0.5158,-0.5157,-0.5159,-0.5163,-0.5165,-0.517,-0.5165,-0.5171,-0.5171,-0.5169,-0.5178,-0.5179,-0.5186,-0.5176,-0.5176,-0.5176,0,-0.5115,-0.5121,-0.513,-0.5136,-0.5138,-0.5143,-0.5148,-0.5153,-0.5158,-0.5159,-0.5163,-0.5164,-0.517,-0.5167,-0.5175,-0.5172,-0.5174,-0.5176,-0.5177,-0.5177,-0.5174,-0.5178,-0.5188,-0.5189,-0.5178,-0.5178,-0.5178,0,-0.5118,-0.5128,-0.5135,-0.5137,-0.5144,-0.5148,-0.5151,-0.5155,-0.5159,-0.5164,-0.5166,-0.5171,-0.5174,-0.5178,-0.5181,-0.5179,-0.5189,-0.5186,-0.519,-0.519,-0.5191,-0.5191,-0.5201,-0.5194,-0.5194,-0.5194,-0.5194,0,-0.5125,-0.513,-0.5136,-0.514,-0.5147,-0.515,-0.5156,-0.5159,-0.5164,-0.5168,-0.517,-0.5174,-0.5177,-0.5182,-0.5184,-0.519,-0.5191,-0.5193,-0.5193,-0.5192,-0.5192,-0.5194,-0.5193,-0.5194,-0.5194,-0.5194,-0.5194,0,-0.5129,-0.5133,-0.5141,-0.5147,-0.5149,-0.5153,-0.5159,-0.5163,-0.5166,-0.5172,-0.5173,-0.5178,-0.5183,-0.5186,-0.5193,-0.5195,-0.5202,-0.5202,-0.52,-0.52,-0.5204,-0.5203,-0.5215,-0.5216,-0.5208,-0.5208,-0.5208,0,-0.5133,-0.5137,-0.5145,-0.5148,-0.5151,-0.5157,-0.5161,-0.5164,-0.5168,-0.5174,-0.5178,-0.5184,-0.5188,-0.5198,-0.5201,-0.5207,-0.5207,-0.521,-0.5207,-0.5207,-0.5206,-0.5206,-0.5206,-0.5211,-0.5211,-0.5211,-0.5211,0,-0.5139,-0.5141,-0.5147,-0.5153,-0.5158,-0.5163,-0.5168,-0.517,-0.5175,-0.5179,-0.5185,-0.5189,-0.5197,-0.5202,-0.5208,-0.5211,-0.5212,-0.5212,-0.5213,-0.5212,-0.5211,-0.5211,-0.5201,-0.5211,-0.5211,-0.5211,-0.5211,-0.5211,-0.5143,-0.5147,-0.5153,-0.5159,-0.5164,-0.5169,-0.5173,-0.5177,-0.5182,-0.5189,-0.5191,-0.5197,-0.5202,-0.521,-0.5213,-0.5218,-0.5217,-0.5219,-0.5219,-0.522,-0.522,-0.521,-0.5219,-0.5219,-0.5219,-0.5219,-0.5219,0,-0.5149,-0.5153,-0.5159,-0.5167,-0.5172,-0.5172,-0.5178,-0.5182,-0.5188,-0.5193,-0.5198,-0.5205,-0.5211,-0.5216,-0.5221,-0.5225,-0.5225,-0.5226,-0.5225,-0.5226,-0.522,-0.5219,-0.5226,-0.5226,-0.5226,-0.5226,-0.5226,-0.5226,-0.5153,-0.516,-0.5163,-0.5173,-0.5177,-0.5183,-0.5187,-0.5191,-0.5195,-0.5203,-0.5208,-0.5211,-0.5216,-0.5223,-0.5228,-0.5229,-0.5231,-0.5232,-0.5233,-0.5227,-0.5227,-0.5226,-0.5224,-0.5232,-0.5232,-0.5239,-0.5239,-0.5239]},{"header":{"parameterUnit":"m.s-1","parameterCategory":1,"la1":30.2991,"la2":30.254,"lo1":-89.0895,"lo2":-89.0444,"dy":0.0017,"dx":0.0017,"nx":28,"ny":28,"refTime":"2025-08-06T21:00:00:Z","depth":0,"parameterNumber":3,"parameterNumberName":"V-component_of_WINDS"},"data":[0,0,0,0,0,0,0,0,0,0,0,0,0,0,0,0,0,0,0,0,0,0,0,0,0,0,0,0,0,0,0,0,0,0,0,0,0,0,0,0,0,0,0,0,0,0,0,0,0,0,0,0,0,0,0,0,0,0,0.9635,0.9634,0,0.9581,0.958,0.958,0.9532,0.9532,0.9531,0.9531,0.9473,0.9472,0.9471,0,0,0,0,0,0,0,0,0,0,0,0,0,0.9692,0.9691,0.9635,0.9634,0.9633,0.9581,0.958,0.958,0.9532,0.9532,0.9531,0.953,0.9473,0.9472,0.9471,0,0,0,0,0,0,0,0,0,0,0,0,0,0.9656,0.9691,0.9635,0.9603,0.96,0.9581,0.958,0.958,0.9532,0.9532,0.9531,0.953,0.9473,0.9472,0.947,0.9478,0,0,0.9466,0.9465,0,0,0,0,0,0,0,0,0.9658,0.9654,0.9609,0.9606,0.9602,0.9563,0.958,0.9545,0.9533,0.9558,0.9531,0.953,0.9503,0.9499,0.9491,0.9475,0.9472,0.9466,0.9465,0.9464,0.9464,0,0,0,0,0,0,0,0.9661,0.9656,0.9613,0.9608,0.9604,0.9591,0.9585,0.9573,0.9536,0.9556,0.9552,0.9547,0.9501,0.9492,0.9489,0.9471,0.9466,0.9464,0.9463,0.9463,0.9457,0.9458,0,0,0,0,0,0,0.9668,0.9658,0.9615,0.9612,0.9628,0.9591,0.9584,0.9576,0.9536,0.9529,0.9547,0.9545,0.9495,0.9491,0.9487,0.9491,0.9464,0.9463,0.9462,0.9456,0.9457,0.9458,0,0,0,0,0,0,0.967,0.9665,0.9617,0.9634,0.9627,0.959,0.9582,0.9575,0.9567,0.953,0.9522,0.9546,0.9495,0.9489,0.948,0.9489,0.9462,0.9461,0.9455,0.9457,0.9458,0.9502,0,0,0,0,0,0,0.9672,0.9666,0.9669,0.9634,0.9626,0.9613,0.9583,0.9575,0.9564,0.956,0.9526,0.9519,0.9493,0.9483,0.9479,0.9486,0.9459,0.9454,0.9456,0.9457,0.9499,0.9504,0.9508,0,0,0,0,0,0.9674,0.9683,0.9669,0.9664,0.963,0.9613,0.9608,0.9579,0.9565,0.9568,0.9544,0.952,0.9489,0.9482,0.9477,0.9485,0.9454,0.9455,0.9457,0.9497,0.9503,0.9508,0,0,0,0,0,0,0.9719,0.9678,0.9662,0.9661,0.9641,0.9605,0.9607,0.9587,0.957,0.9566,0.953,0.9523,0.9517,0.95,0.9493,0.9488,0.9468,0.9469,0.95,0.9506,0.951,0.9514,0.9458,0,0,0,0,0,0.9729,0.972,0.9684,0.9686,0.9677,0.9644,0.9636,0.9615,0.9593,0.9584,0.9559,0.9537,0.9522,0.9513,0.9497,0.9497,0.9488,0.9499,0.9504,0.9508,0.9508,0.9506,0.951,0.9464,0.9464,0.9464,0,0,0.9748,0.9725,0.9722,0.9695,0.9677,0.9667,0.9637,0.9629,0.9621,0.9582,0.9572,0.9553,0.9526,0.9522,0.9518,0.9507,0.9519,0.951,0.9513,0.9512,0.9508,0.9512,0.9516,0.9465,0.9465,0.9465,0,0,0.978,0.9762,0.9761,0.9744,0.9718,0.9696,0.9696,0.9663,0.9649,0.9639,0.9609,0.9599,0.9574,0.9556,0.9543,0.9567,0.9544,0.9563,0.9586,0.9584,0.9588,0.9591,0.9598,0.9601,0.9564,0.9564,0.9564,0,0.9808,0.9793,0.9763,0.9756,0.9745,0.971,0.9708,0.9693,0.9662,0.9655,0.9643,0.961,0.959,0.9579,0.9585,0.9577,0.9574,0.9566,0.959,0.9593,0.9595,0.9602,0.9605,0.9566,0.9566,0.9566,0.9566,0,0.9828,0.9819,0.9821,0.9793,0.9782,0.9778,0.9746,0.9738,0.9718,0.9697,0.9686,0.966,0.9638,0.9634,0.9615,0.9621,0.9615,0.9597,0.9575,0.9602,0.9608,0.961,0.957,0.9569,0.9568,0.9568,0,0,0.9886,0.9842,0.9843,0.983,0.9798,0.9789,0.9783,0.9762,0.9756,0.9735,0.9728,0.9708,0.9691,0.9677,0.9655,0.9653,0.9672,0.9635,0.9633,0.9642,0.9676,0.9689,0.9693,0.9657,0.9658,0.9658,0.9678,0,0.9912,0.99,0.9872,0.9868,0.9858,0.9824,0.9819,0.9798,0.9778,0.9765,0.9742,0.9728,0.9707,0.9698,0.9695,0.967,0.9678,0.9669,0.9649,0.9648,0.9656,0.9696,0.971,0.973,0.968,0.968,0.968,0,0.994,0.9923,0.9918,0.9886,0.9881,0.9876,0.9854,0.9843,0.9818,0.9804,0.9788,0.9764,0.9753,0.9734,0.9719,0.9713,0.9703,0.969,0.969,0.9686,0.9666,0.9692,0.9736,0.9738,0.9684,0.9684,0.9683,0,0.9982,0.9957,0.9951,0.994,0.9903,0.9901,0.9885,0.9859,0.9848,0.9829,0.9821,0.9801,0.9789,0.9773,0.9743,0.9732,0.9731,0.9709,0.9717,0.9718,0.9718,0.9718,0.9759,0.9713,0.9713,0.9713,0.9713,0,1.0013,1.0011,0.9969,0.9965,0.9961,0.9929,0.9926,0.9907,0.9884,0.9875,0.9845,0.9836,0.9798,0.9784,0.9761,0.9751,0.9746,0.9733,0.9727,0.9735,0.9737,0.9728,0.9725,0.9714,0.9713,0.9713,0.9713,0,1.0059,1.0031,1.0021,0.9987,0.9978,0.9977,0.9947,0.9941,0.9919,0.9908,0.9903,0.9868,0.9851,0.982,0.9793,0.9777,0.9772,0.9762,0.9781,0.9777,0.9786,0.9785,0.9822,0.9825,0.9778,0.9778,0.9779,0,1.008,1.0078,1.0043,1.0035,1.0021,1.0008,0.9997,0.9965,0.9954,0.9925,0.9923,0.9903,0.9886,0.986,0.9831,0.981,0.9798,0.9813,0.9795,0.9804,0.9797,0.9798,0.9797,0.9817,0.9817,0.9818,0.9818,0,1.012,1.0106,1.0092,1.0073,1.006,1.0043,1.0024,1.0019,0.9982,0.9972,0.9954,0.9941,0.9914,0.9895,0.987,0.9852,0.9828,0.9824,0.9825,0.9833,0.9844,0.9837,0.9791,0.9823,0.9823,0.9823,0.9822,0.9822,1.0153,1.015,1.0125,1.0109,1.0092,1.0075,1.0068,1.0045,1.003,1.0007,0.9988,0.9972,0.9946,0.991,0.9893,0.9879,0.9868,0.9869,0.9869,0.987,0.9873,0.9847,0.9874,0.9874,0.9874,0.9874,0.9874,0,1.0191,1.0174,1.016,1.0135,1.0123,1.0103,1.0081,1.0072,1.0058,1.0036,1.002,0.9999,0.998,0.995,0.9928,0.9922,0.9911,0.9917,0.9917,0.9913,0.9884,0.9886,0.9927,0.9927,0.9927,0.9927,0.9927,0.9927,1.021,1.0202,1.0185,1.0168,1.015,1.0134,1.0123,1.0107,1.0089,1.0068,1.0052,1.0033,1.0007,0.9983,0.9964,0.9955,0.9948,0.9958,0.9946,0.992,0.9915,0.991,0.9911,0.9957,0.9957,0.9975,0.9976,0.9976]}]]